Location: Fontevrault
(47.1823°N, 0.0493°E)
Time: 17:32:55
(UTC+00:00)

Cosmos 1725 Rocket - Pass Details

Date: 28 October 2021
Orbit: 961 x 991 km, 82.9° (Epoch: 27 November)

Event Time Altitude Azimuth Distance (km) Brightness Sun altitude
Rises 05:40:23 0° 356° (N) 3,659 6.9 -10.2°
Reaches altitude 10° 05:43:08 10° 6° (N) 2,708 6.3 -9.7°
Maximum altitude 05:48:47 36° 71° (ENE) 1,487 5.7 -8.8°
Drops below altitude 10° 05:54:24 10° 137° (SE) 2,700 7.2 -7.8°
Sets 05:57:08 0° 146° (SE) 3,646 7.8 -7.4°
